www.pogodaiklimat.ru
Время
(UTC), дата
21 25.02
00 26.02
03 26.02
06 26.02
09 26.02
12 26.02
15 26.02
18 26.02
21 26.02
00 27.02
03 27.02
06 27.02
09 27.02
12 27.02
15 27.02
18 27.02
21 27.02
00 28.02
03 28.02
06 28.02
09 28.02
12 28.02
15 28.02
18 28.02
21 28.02
00 1.03
03 1.03
06 1.03
09 1.03
12 1.03
15 1.03
18 1.03
21 1.03
00 2.03
03 2.03
06 2.03
09 2.03
12 2.03
15 2.03
18 2.03
21 2.03
00 3.03
03 3.03
06 3.03
09 3.03
12 3.03
15 3.03
18 3.03
21 3.03
00 4.03
03 4.03
06 4.03
09 4.03
12 4.03
15 4.03
18 4.03
Ветер
(напр.,м/с)
Видим. Явления Облачность Т
(С)
Тd
(С)
f
(%)
Тe
(С)
Тes
(С)
Комфортность P
(гПа)
Po
(гПа)
Тmin
(С)
Tmax
(С)
R
(мм)
R24
(мм)
S
(см)
С 5-7
{9}
20 км 10/1 600 м
[Cb cap Ci sp]
-13.2 -16.9 74 -22 -22 по сезону 1019.8 1015.6 -13.3 0.2 78
С 5-7
{7}
10 км 9/6 600 м
[Cb cap Ac lent Ci sp]
-13.2 -17.0 73 -22 -21 прохладно 1021.0 1016.8 -13.4
С 4-6
{8}
10 км 10/4 600 м
[Cb cap Cs]
-12.7 -16.7 72 -20 -18 прохладно 1021.0 1016.8
С 4-7
{8}
10 км 10/8 600 м
[Cb cap Ci sp]
-11.3 -15.1 73 -18 -18 прохладно 1021.5 1017.3
С 9-12
{12}
20 км 10/8 600 м
[Cb cap Ci sp]
-11.5 -15.5 72 -22 -22 холодно 1023.4 1019.2 -11.2
С 3-5
{12}
20 км 10/4 600 м
[Cb cap Cs]
-12.9 -17.7 67 -19 -19 по сезону 1025.6 1021.4
СВ 3-4
{8}
20 км 8/3 600 м
[Cb cap Ci sp]
-14.3 -18.0 73 -21 -21 по сезону 1026.9 1022.6
ЮВ 3-4
{4}
20 км ясно -20.5 -22.2 86 -28 -28 холодно 1027.6 1023.2
ЮВ 4-5
{5}
20 км 3/3 600 м
[Sc]
-21.8 -23.9 83 -31 -31 опасность
обморожения
1028.8 1024.4 -22.5 76
ЮВ 3-4
{5}
20 км 4/1 600 м
[Cb cap Ci fib]
-16.4 -20.2 72 -23 -21 холодно 1029.6 1025.3
штиль 0
{4}
50 км 3/1 600 м
[Cu med, cong Ci fib]
-9.1 -16.5 55 -9 -2 по сезону 1028.4 1024.2
ЮЗ 1-2
{3}
50 км 6/0
[Cc]
-8.7 -18.1 47 -11 -9 по сезону 1026.6 1022.5
ЮВ 2-3
{3}
20 км 10/3 600 м
[Sc Ac cast Cc]
-12.9 -16.5 74 -18 -18 прохладно 1026.2 1022.0 -7.8
ЮВ 4-4
{5}
20 км ясно -15.2 -17.3 84 -23 -23 холодно 1024.6 1020.4
ЮВ 6-9
{9}
20 км 10/0
[Ci sp]
-11.3 -14.3 78 -20 -20 по сезону 1020.8 1016.7
ЮВ 6-8
{10}
20 км 10/3 600 м
[Cb cap Ac lent Ci sp]
-7.0 -10.0 79 -15 -15 по сезону 1016.1 1012.0
Ю 5-9
{11}
2000 м слаб. ливневой снег {метель} 10/10 600 м
[Cb cap]
-4.0 -4.1 99 -11 -11 по сезону 1012.0 1008.0 -15.2 0.5 75
Ю 9-14
{18}
2000 м слаб. ливневой снег {метель} 10/10 600 м
[Cb cap]
-2.1 -2.2 99 -11 -11 по сезону 1009.4 1005.4
ЮЗ 6-10
{15}
10 км в посл. час ливневой снег {метель} 10/8 600 м
[Cb cap As trans]
-2.0 -5.7 76 -9 -9 по сезону 1008.9 1004.9
ЮЗ 3-6
{10}
20 км {ливн. снег, метель} 10/3 600 м
[Cb cap Ac As Ci sp]
-2.0 -7.9 64 -7 -6 по сезону 1009.3 1005.3
ЮЗ 3-4
{8}
20 км {ливн. снег} 10/5 600 м
[Cb cap Ac As]
-2.5 -6.9 72 -7 -7 тепло 1010.2 1006.2 -1.4 2
В 1-2
{8}
20 км {ливн. снег} 10/0
[Ci fib]
-7.3 -8.1 94 -10 -10 по сезону 1010.7 1006.6
С 5-7
{9}
4000 м слаб. ливневой снег 10/10 600 м
[Cb cap]
-8.2 -8.9 95 -16 -16 по сезону 1012.0 1007.9
СЗ 5-9
{10}
20 км {ливн. снег} 9/9 600 м
[Cb cap]
-9.5 -10.8 90 -17 -17 по сезону 1013.8 1009.7
СЗ 6-10
{10}
20 км 9/9 600 м
[Cb cap]
-10.7 -14.3 75 -19 -19 прохладно 1015.8 1011.7 -10.9 0.5 75
СЗ 6-10
{15}
4000 м слаб. ливневой снег {метель} 9/8 600 м
[Cb cap Ci sp]
-11.6 -16.0 70 -20 -20 по сезону 1017.0 1012.9 -11.6
СЗ 5-9
{11}
4000 м в посл. час ливневой снег {метель} 8/8 600 м
[Cb cap]
-10.6 -16.0 64 -18 -18 по сезону 1018.3 1014.2
З 5-8
{10}
10 км {ливн. снег, метель} 9/9 600 м
[Cb cap]
-9.9 -17.0 56 -18 -17 прохладно 1019.8 1015.7
З 6-8
{10}
10 км {ливн. снег} 8/8 600 м
[Cb cap]
-11.2 -19.4 51 -20 -20 прохладно 1020.7 1016.5 -9.5 0.2
З 6-8
{8}
20 км {ливн. снег} 8/3 600 м
[Sc Ac trans Ci sp]
-11.2 -20.6 46 -20 -20 по сезону 1022.2 1018.0
ЮВ 2-3
{10}
20 км 4/4 600 м
[Cb cap]
-17.7 -21.2 74 -23 -23 по сезону 1023.1 1018.8
ЮВ 3-3
{5}
20 км 3/3 600 м
[Sc]
-19.0 -21.1 83 -26 -26 прохладно 1023.3 1019.0
ЮВ 3-4
{4}
20 км 5/4 600 м
[Cb cap Ci sp]
-19.1 -21.3 83 -27 -27 холодно 1024.1 1019.8 -20.7 75
З 1-3
{4}
50 км 4/0
[Ci sp]
-13.9 -23.1 46 -16 -12 по сезону 1024.8 1020.6 -21.3
С 2-4
{8}
50 км 3/1 600 м
[Cu med, cong Ci sp]
-13.0 -23.5 41 -18 -12 по сезону 1024.0 1019.8
С 3-4
{5}
50 км 3/1 600 м
[Cu med, cong Ci fib]
-13.3 -22.7 45 -20 -18 холодно 1022.7 1018.5
В 3-3
{5}
50 км 3/0
[Ci sp]
-17.9 -23.7 60 -25 -25 очень
холодно
1023.2 1018.9 -12.7
ЮВ 3-5
{5}
20 км ясно -22.1 -24.4 82 -30 -30 очень
холодно
1024.4 1020.0
ЮВ 5-7
{7}
20 км ясно -21.7 -24.7 77 -32 -32 опасность
обморожения
1023.3 1018.9
В 3-4
{7}
20 км ясно -24.8 -27.2 80 -33 -33 опасность
обморожения
1023.5 1019.1
ЮВ 2-4
{4}
20 км ясно -24.9 -27.7 77 -32 -32 опасность
обморожения
1023.3 1018.9 -26.3 74
З 6-9
{11}
20 км ясно -14.4 -23.2 47 -24 -22 холодно 1023.5 1019.3
ЮЗ 4-6
{9}
20 км ясно -12.7 -23.4 40 -20 -16 прохладно 1022.4 1018.2
Ю 5-9
{11}
20 км ясно -10.8 -20.5 45 -19 -17 прохладно 1020.6 1016.5
ЮЗ 6-10
{13}
20 км 3/1 600 м
[Cb cap Ac lent]
-9.1 -16.2 56 -17 -17 по сезону 1020.6 1016.5 -9.1
Ю 3-6
{10}
20 км ясно -11.0 -17.6 58 -17 -17 по сезону 1019.9 1015.7
Ю 4-7
{7}
20 км ясно -10.1 -15.2 66 -17 -17 по сезону 1017.7 1013.6
Ю 5-10
{10}
20 км 10/3 600 м
[Sc Ci sp]
-6.2 -12.1 63 -13 -13 тепло 1016.0 1011.9
Ю 9-16
{16}
20 км позёмок 10/3 600 м
[Cb cap Ci sp]
-4.7 -12.4 55 -13 -13 по сезону 1014.4 1010.4 -15.0 73
Ю 9-14
{16}
20 км позёмок 9/0
[Ci sp]
-3.4 -9.8 61 -12 -12 по сезону 1013.2 1009.2
Ю 9-15
{17}
20 км позёмок 10/0
[Ci sp]
-1.5 -8.8 57 -9 -9 по сезону 1011.0 1007.0
Ю 10-16
{16}
20 км позёмок 10/0
[As op]
-1.4 -6.4 69 -10 -10 по сезону 1009.7 1005.8
Ю 4-6
{16}
20 км {метель} 10/5 600 м
[Cb cap As op]
-0.9 -7.4 61 -6 -6 тепло 1010.0 1006.0 -0.8
ЮВ 2-3
{7}
20 км {метель} 10/5 600 м
[Cb cap As op]
-1.7 -5.2 77 -5 -5 тепло 1009.8 1005.8
С 2-2
{7}
4000 м слаб. ливневой снег 10/6 600 м
[Cb cap As op]
-2.0 -2.9 94 -6 -6 тепло 1007.6 1003.6
Ю 7-11
{12}
10 км слаб. ливневой снег 9/5 600 м
[Cb cap Ac trans]
-0.6 -1.1 96 -8 -8 тепло 1006.4 1002.5
Местоположение метеостанции Александровск-Сахалинский (Сахалинская область, Россия): широта 50.90 долгота 142.10 высота над уровнем моря 31 м.
В архиве по умолчанию представлена погода в Александровске-Сахалинском за последнюю неделю. Архивные данные за месяц целиком и за предыдущие месяцы, начиная с января 2011 года, Вы можете получить, выбрав интересующий диапазон дат из раскрывающегося списка и нажав кнопку "Найти!".
*Определитесь, кто Вы:
Внимание! Время в таблицах - всемирное. Для получения местного времени необходимо прибавить поправку, которая равна 11 ч.
Смотрите также архив погоды в соседних городах и на ближайших метеорологических станциях:
Партнеры нашего сайта:      
Пояснения к столбцам:
  • Ветер - указаны скорость ветра в м/с - средняя за 10 мин, порывы в срок и между сроками (в фигурных скобках) и направление, откуда дует ветер: С - северный,
  • СВ - северо-восточный, В - восточный, ЮВ - юго-восточный, Ю - южный, ЮЗ - юго-западный, З - западный, СЗ - северо-западный.
  • Видимость - горизонтальная дальность видимости в метрах или километрах. При видимости от 1 до 10 км при отсутствии осадков обычно наблюдается дымка, при ухудшении видимости до 1 км и менее - туман. В сухую погоду видимость может ухудшаться дымом, пылью или мглою.
  • Явления - указаны атмосферные явления, наблюдавшиеся в срок или в последний час перед сроком; фигурными скобками обозначены явления, наблюдавшиеся между сроками (за 1-3 часа до срока); квадратными скобками обозначены град или гололедные отложения с указанием их диаметра в мм.
  • Облачность - указаны через наклонную черту общая и нижняя облачность в баллах и высота нижней границы облаков в метрах; квадратными скобками обозначены формы облаков: Ci - перистые, Cs - перисто-слоистые, Cc - перисто-кучевые, Ac - высококучевые, As - высокослоистые, Sc - слоисто-кучевые, Ns - слоисто-дождевые, Cu - кучевые, Cb - кучево-дождевые. Подробнее классификацию облаков см. в Атласе облаков (PDF).
  • T - Температура воздуха - температура, измеренная на высоте 2 м над землей.
  • Td - Температура точки росы - температура, при понижении до которой содержащийся в воздухе водяной пар достигнет насыщения.
  • f - Относительная влажность воздуха - влажноcть воздуха, измеренная на высоте 2 м над землей.
  • Te - Эффективная температура - температура, которую ощущает одетый по сезону человек в тени. Характеристика душности погоды. При расчете учитывается влияние влажности воздуха и скорости ветра на теплоощущения человека.
  • Tes - Эффективная температура на солнце - температура, которую ощущает человек, с поправкой на солнечный нагрев. Характеристика знойности погоды. Зависит от высоты солнца над горизонтом, облачности и скорости ветра. Ночью, в пасмурную погоду, а также при ветре 12 м/с и более поправка равна нулю.
  • P - Атмосферное давление - приведенное к уровню моря атмосферное давление.
  • Po - Атмосферное давление - измеренное на уровне метеостанции атмосферное давление.
  • Tmin - Минимальная температура - минимум температуры воздуха на высоте 2 м над землей.
  • Tmax - Максимальная температура - максимум температуры воздуха на высоте 2 м над землей.
  • R - Количество осадков - Количество выпавших осадков за период времени, мм. При наведении курсора мыши на число - период времени, за который выпало указанное количество осадков.
  • R24 - Количество осадков - Количество выпавших осадков за 24 часа, мм.
  • S - Снежный покров - Высота снежного покрова, см. При наведении курсора мыши на число - состояние снежного покрова и степень покрытия местности в баллах.